Renton, WA
on Sunday, November 25, 2012

Sunday
Previous Day Next Day
Daily Summary
 ActualAverage (KSEA)Record (KSEA)
Temperature
Mean Temperature °F / °C 43°F / 6°C  
Max Temperature 48°F / 9°C 49°F / 9°C 59°F / 15°C (1949)
Min Temperature 37°F / 3°C 38°F / 3°C 18°F / -7°C (1985)
Degree Days
Heating Degree Days 22 22  
Month to date heating degree days 475  
Since 1 July heating degree days 1072  
Cooling Degree Days 0 0  
Month to date cooling degree days 0  
Year to date cooling degree days 189  
Moisture
Dew Point 38°F / 3°C   
Average Humidity 86    
Maximum Humidity 97    
Minimum Humidity 68    
Precipitation
Precipitation 0.00 in / 0.00 cm 0.22 in / 5.59 cm 3.04 in / 7.72 cm (1998)
Month to date precipitation 5.47  
Year to date precipitation 31.04  
Snow
Snow 0.00 in / 0.00 cm in / cm 0.50 in / 1.27 cm (1985)
Month to date snowfall  
Since 1 July snowfall  
Snow Depth in / cm   
Wind
Wind Speed 3 mph / 5 km/h   
Max Wind Speed 13 mph / 21 km/h   
Max Gust Speed mph / km/h   
Visibility 6 miles / 9 kilometers   
Events Fog   

Key: T is trace of precipitation, MM is missing value
Source: NWS Daily Summary
Time(PST)TemperatureDew PointHumidity Pressure Visibility Wind DirectionWind SpeedGust SpeedPrecipitationEvents Conditions
12:13 AM 41.0°F / 5.0°C 37.4°F / 3.0°C 87% 30.28 in / 1025.3 hPa 2.5 miles / 4.0 kilometers South 3.5 mph / 5.6 km/h - N/A   Overcast
12:20 AM 41.0°F / 5.0°C 37.4°F / 3.0°C 87% 30.28 in / 1025.3 hPa 4.0 miles / 6.4 kilometers Calm Calm - N/A   Overcast
12:53 AM 41.0°F / 5.0°C 37.9°F / 3.3°C 89% 30.29 in / 1025.7 hPa 7.0 miles / 11.3 kilometers Calm Calm - N/A   Overcast
1:53 AM 41.0°F / 5.0°C 39.0°F / 3.9°C 93% 30.30 in / 1026.0 hPa 6.0 miles / 9.7 kilometers Calm Calm - N/A   Overcast
2:53 AM 41.0°F / 5.0°C 37.9°F / 3.3°C 89% 30.31 in / 1026.2 hPa 5.0 miles / 8.0 kilometers Calm Calm - N/A   Overcast
3:03 AM 41.0°F / 5.0°C 37.4°F / 3.0°C 87% 30.29 in / 1025.6 hPa 1.8 miles / 2.8 kilometers Calm Calm - N/A   Overcast
3:16 AM 41.0°F / 5.0°C 39.2°F / 4.0°C 93% 30.30 in / 1026.0 hPa 0.5 miles / 0.8 kilometers Calm Calm - N/A Fog Fog
3:53 AM 41.0°F / 5.0°C 39.0°F / 3.9°C 93% 30.32 in / 1026.5 hPa 0.5 miles / 0.8 kilometers Calm Calm - N/A Fog Fog
4:53 AM 39.0°F / 3.9°C 37.0°F / 2.8°C 93% 30.32 in / 1026.7 hPa 0.2 miles / 0.4 kilometers Calm Calm - N/A Fog Fog
5:00 AM 39.2°F / 4.0°C 37.4°F / 3.0°C 93% 30.31 in / 1026.3 hPa - North - - N/A   Unknown
5:15 AM 39.2°F / 4.0°C 37.4°F / 3.0°C 93% 30.31 in / 1026.3 hPa 0.5 miles / 0.8 kilometers Calm Calm - N/A Fog Fog
5:36 AM 37.4°F / 3.0°C 35.6°F / 2.0°C 93% 30.31 in / 1026.3 hPa 0.2 miles / 0.4 kilometers Calm Calm - N/A Fog Fog
5:53 AM 39.0°F / 3.9°C 37.0°F / 2.8°C 93% 30.32 in / 1026.8 hPa 0.2 miles / 0.4 kilometers Calm Calm - N/A Fog Fog
6:53 AM 39.0°F / 3.9°C 37.0°F / 2.8°C 93% 30.33 in / 1027.0 hPa 0.2 miles / 0.4 kilometers Calm Calm - N/A Fog Fog
7:53 AM 37.9°F / 3.3°C 37.0°F / 2.8°C 97% 30.34 in / 1027.4 hPa 0.2 miles / 0.4 kilometers Calm Calm - N/A Fog Fog
8:53 AM 37.9°F / 3.3°C 37.0°F / 2.8°C 97% 30.36 in / 1027.9 hPa 0.5 miles / 0.8 kilometers Calm Calm - N/A Fog Fog
9:53 AM 41.0°F / 5.0°C 39.0°F / 3.9°C 93% 30.36 in / 1028.1 hPa 0.5 miles / 0.8 kilometers Calm Calm - N/A Fog Fog
10:09 AM 42.8°F / 6.0°C 39.2°F / 4.0°C 87% 30.35 in / 1027.7 hPa 2.0 miles / 3.2 kilometers North 3.5 mph / 5.6 km/h - N/A   Overcast
10:53 AM 42.1°F / 5.6°C 39.9°F / 4.4°C 92% 30.36 in / 1028.1 hPa 2.0 miles / 3.2 kilometers North 6.9 mph / 11.1 km/h - N/A   Overcast
11:53 AM 42.1°F / 5.6°C 39.9°F / 4.4°C 92% 30.35 in / 1027.7 hPa 2.5 miles / 4.0 kilometers NNW 9.2 mph / 14.8 km/h - N/A   Overcast
12:08 PM 42.8°F / 6.0°C 39.2°F / 4.0°C 87% 30.33 in / 1027.0 hPa 8.0 miles / 12.9 kilometers North 5.8 mph / 9.3 km/h - N/A   Mostly Cloudy
12:15 PM 42.8°F / 6.0°C 39.2°F / 4.0°C 87% 30.33 in / 1027.0 hPa 9.0 miles / 14.5 kilometers NNW 4.6 mph / 7.4 km/h - N/A   Mostly Cloudy
12:22 PM 44.6°F / 7.0°C 39.2°F / 4.0°C 81% 30.33 in / 1027.0 hPa 10.0 miles / 16.1 kilometers NNW 5.8 mph / 9.3 km/h - N/A   Scattered Clouds
12:53 PM 46.0°F / 7.8°C 39.9°F / 4.4°C 79% 30.34 in / 1027.2 hPa 10.0 miles / 16.1 kilometers NNW 6.9 mph / 11.1 km/h - N/A   Clear
1:53 PM 48.0°F / 8.9°C 39.9°F / 4.4°C 74% 30.32 in / 1026.6 hPa 10.0 miles / 16.1 kilometers North 5.8 mph / 9.3 km/h - N/A   Partly Cloudy
2:53 PM 48.0°F / 8.9°C 39.9°F / 4.4°C 74% 30.31 in / 1026.4 hPa 10.0 miles / 16.1 kilometers NNW 5.8 mph / 9.3 km/h - N/A   Clear
3:53 PM 46.9°F / 8.3°C 37.0°F / 2.8°C 68% 30.31 in / 1026.3 hPa 10.0 miles / 16.1 kilometers North 4.6 mph / 7.4 km/h - N/A   Clear
4:53 PM 46.0°F / 7.8°C 37.9°F / 3.3°C 73% 30.30 in / 1026.1 hPa 10.0 miles / 16.1 kilometers NNW 5.8 mph / 9.3 km/h - N/A   Clear
5:53 PM 45.0°F / 7.2°C 37.9°F / 3.3°C 76% 30.29 in / 1025.7 hPa 10.0 miles / 16.1 kilometers Variable 5.8 mph / 9.3 km/h - N/A   Clear
6:53 PM 44.1°F / 6.7°C 39.0°F / 3.9°C 82% 30.28 in / 1025.2 hPa 10.0 miles / 16.1 kilometers NNW 9.2 mph / 14.8 km/h - N/A   Clear
7:53 PM 44.1°F / 6.7°C 37.9°F / 3.3°C 79% 30.27 in / 1025.1 hPa 10.0 miles / 16.1 kilometers NNW 8.1 mph / 13.0 km/h - N/A   Clear
8:53 PM 43.0°F / 6.1°C 37.0°F / 2.8°C 80% 30.26 in / 1024.7 hPa 10.0 miles / 16.1 kilometers NNW 9.2 mph / 14.8 km/h - N/A   Clear
9:53 PM 42.1°F / 5.6°C 37.9°F / 3.3°C 85% 30.25 in / 1024.4 hPa 10.0 miles / 16.1 kilometers NNW 11.5 mph / 18.5 km/h - N/A   Clear
10:17 PM 42.8°F / 6.0°C 37.4°F / 3.0°C 81% 30.23 in / 1023.6 hPa 9.0 miles / 14.5 kilometers NNW 12.7 mph / 20.4 km/h - N/A   Partly Cloudy
10:53 PM 42.1°F / 5.6°C 37.0°F / 2.8°C 82% 30.23 in / 1023.7 hPa 10.0 miles / 16.1 kilometers NW 12.7 mph / 20.4 km/h - N/A   Scattered Clouds
11:53 PM 39.9°F / 4.4°C 36.0°F / 2.2°C 86% 30.23 in / 1023.6 hPa 9.0 miles / 14.5 kilometers NW 12.7 mph / 20.4 km/h - N/A   Partly Cloudy
Moon Phase
Nov. 25 Nov. 28 Dec. 06 Dec. 13 Dec. 20
Sunrise:07:28 AM (PST) Moon Rise:02:49 PM (PST)11/25
Sunset:04:23 PM (PST) Moon Set:04:40 AM (PST)11/25

Copyright © 2014 The Weather Underground, Inc.